{"data":{"norad_id":47277,"intl_designator":"2020-100V","name":"ONEWEB-0131","alt_names":[],"object_type":"PAYLOAD","status":"ACTIVE","operator":null,"country":"UK","launch_date":"2020-12-18","launch_site_code":"VOSTO","launch_vehicle":null,"mission":null,"orbit_class":"UNKNOWN","rcs_meters":null,"size_class":null,"mass_kg":null,"dimensions":null,"purposes":["comms"],"wikipedia_slug":null,"has_3d_model":false,"image_url":null,"decayed_at":null,"tle_current":{"epoch":"2026-05-25T02:04:43.599072Z","epoch_age_seconds":77857,"freshness":"FRESH","line1":"1 47277U 20100V   26145.08661573 -.00000157  00000+0 -47301-3 0  9996","line2":"2 47277  87.8949 355.2665 0001745  85.2000 274.9328 13.12443785261651","mean_motion":13.12443785,"eccentricity":0.0001745,"inclination_deg":87.8949,"raan_deg":355.2665,"arg_perigee_deg":85.2,"mean_anomaly_deg":274.9328,"bstar":-0.00047301,"rev_number":26165,"period_min":109.71898503066,"perigee_km":1212.3954847216,"apogee_km":1215.0450429067,"semimajor_km":7591.8572638141,"source":"CELESTRAK","updated_at":"2026-05-25T13:38:22.383208Z"}}}